Regional Weather Roundup
Issued by NWS

Home | Current Version | Previous Version | Text Only | Print | Product List | Glossary On
Versions: 1 2 3 4 5 6 7 8 9 10 11 12 13 14 15 16 17 18 19 20 21 22 23 24 25 26 27 28 29 30 31 32 33 34 35 36 37 38 39 40 41 42 43 44 45 46 47 48 49 50
473
ASUS43 KFSD 220902
RWRSD

WEATHER ROUNDUP FOR SOUTH DAKOTA
NATIONAL WEATHER SERVICE SIOUX FALLS SD
400 AM CDT SUN APR 22 2018

NOTE: "FAIR" INDICATES FEW OR NO CLOUDS BELOW 12,000 FEET WITH NO
SIGNIFICANT WEATHER AND/OR OBSTRUCTIONS TO VISIBILITY.


SDZ001>005-009-010-012>017-221000-
NORTHWEST AND NORTH CENTRAL SOUTH DAKOTA

CITY           SKY/WX    TMP DP  RH WIND       PRES   REMARKS
BUFFALO          N/A     38  34  85 S7        30.04R
FAITH            N/A     36  36 100 S18       30.12R
MOBRIDGE       CLEAR     35  32  88 SE8       30.18F WCI  29
$$

SDZ012>016-024>037-041>051-057-063-072>074-221000-
SOUTHWEST AND SOUTH CENTRAL SOUTH DAKOTA

CITY           SKY/WX    TMP DP  RH WIND       PRES   REMARKS
RAPID CTY ARPT CLEAR     36  33  89 S8        30.10F
PIERRE         CLEAR     36  34  92 S6        30.20F
CUSTER         CLEAR     31  29  92 W5        30.11S WCI  26
ELLSWORTH AFB  CLEAR    N/A N/A N/A S9        30.10S
PHILIP         CLEAR     37  35  92 S8        30.17S
PINE RIDGE     CLEAR     36  35  96 S12       30.15F
SPEARFISH      FAIR      39  32  75 S3        30.09R
WINNER         CLOUDY    42  34  73 S7        30.22F
$$

SDZ004>011-016>023-039-040-221000-
NORTHEAST SOUTH DAKOTA

CITY           SKY/WX    TMP DP  RH WIND       PRES   REMARKS
ABERDEEN       CLEAR     32  29  88 CALM      30.26F
WATERTOWN      CLEAR     35  28  75 CALM      30.26S
BROOKINGS      CLEAR     35  29  78 CALM      30.27F
SISSETON         N/A     32  30  92 SE6       30.27S WCI  26
$$

SDZ017-020-022-023-036>040-048>070-221000-
SOUTHEAST SOUTH DAKOTA

CITY           SKY/WX    TMP DP  RH WIND       PRES   REMARKS
SIOUX FALLS    CLOUDY    37  33  85 NE6       30.26F
HURON          MOCLDY    37  33  85 SE7       30.25S
CHAMBERLAIN    CLOUDY    40  40 100 CALM      30.24S
MITCHELL       CLOUDY    41  37  86 S3        30.25F
YANKTON        CLOUDY    40  36  86 E5        30.26S
$$

ABBREVIATIONS USED IN REMARKS
   TC - TEMPERATURE IN CELSIUS
  WCI - WIND CHILL INDEX
   HX - HEAT INDEX
  VSB - VISIBILITY





USA.gov is the U.S. government's official web portal to all federal, state and local government web resources and services.